COSMOS 2535 DEB, 44631

Orbit data source: Space-Track

COSMOS 2535 DEB, 44631 is space debris in SSO originally from a launch on Wed, 10 Jul 2019 UTC launched from the Plesetsk Missile And Space Complex (PKMTR). Debris objects in space refer to the collection of defunct objects orbiting the Earth. Examples of debris include non-operational satellites, rocket bodies, and fragments generated from explosions, collisions, or faulty payload assembly.

Loading next visibility...
Identifier
44631, 2019-039H
Orbit
SSO
Last TLE update
19 hours ago
Origin
Manufacturer
Unknown
Mission
Spacecraft
Bus & Motor
Unknown
Mass
Unknown
Launch date (UTC)
2019-07-10 (6 years ago)
Launch vehicle
Unknown
Launch site
Plesetsk Missile And Space Complex (PKMTR)
Object type
Payload
Rocket body
Debris
Shape & HBR
Unknown
Radar Cross Section
Small (<0.1 m²)

Expand to show TLE details & history

TLE from 19 hours ago
0 COSMOS 2535 DEB
1 44631U 19039H   25183.08244615  .00004814  00000-0  31965-3 0  9993
2 44631  97.5654 222.3691 0021966 179.4528 180.6728 15.07494616312080
Epoch: 2025-07-02T01:58Z
TLE epoch observation values (Epoch: 2025-07-02T01:58:43.347Z)
Latitude
Longitude
-87.68017°
Altitude
562.135 km
Speed
7.572 km/s
True Right ascension
14h 49m 28s
True Declination
0° 00' 00"
Sunlit
Object was in full shadow at epoch
Visualization orbit readout
Latitude
-31.39997°
Longitude
-82.27791°
Altitude
569.098 km
Speed
7.568 km/s
Apparent Right ascension
17h 37m 02s
Apparent Declination
-43° 12' 07"
Sunlit
Object is in full shadow
Visualization observer readout
Local Sidereal Time
08:41:25
Azimuth
110.913° ESE
Elevation
-55.79°
Doppler factor
1
Orbital elements
Apogee altitude
556.046 km
Perigee altitude
525.65 km
Semi-major axis
6,918.985 km
Eccentricity
0.0022
Inclination
97.5654°
RAAN
222.3691°
Arg. of periapsis
179.4528°
True anomaly
Unknown
Mean anomaly
180.6728°
Eccentric anomaly
Unknown
Mean motion
3.7712 °/min
Orbital period
95.46 mins
BSTAR
0.00031965
Loading maneuver chart data...
Loading SW <> Apogee altitude chart data...

COSMOS 2535 DEB Visibility forecast

Observer location: undefined°, undefined°

Span
Click to sort rows by Start time (UTC) header in descending order
Start Az.
Max El. time (UTC)
Max El. Az.
Max El.
End time (UTC)
End Az.
6 mins2025-07-03 02:00:18.121Z131.584° SE2025-07-03 02:03:18.121Z83.526° E25.616°2025-07-03 02:06:18.121Z17.864° NNE
5 mins2025-07-03 15:12:18.121Z34.076° NE2025-07-03 15:14:18.121Z94.095° ESE37.068°2025-07-03 15:17:18.121Z171.773° S
|